User: anonymous   Login
Location: Pian di Sc�
(43.6333°N, 11.5500°E)
Time: 10:57:18
(UTC+00:00)
Language:

Nadezhda 4 Rocket - Orbit

View from above orbital plane
View from above orbital plane
View from above satellite
View from above satellite

Ground track
Ground track

The orbit data is extracted from the following two-line orbital elements,

1 23180U 94041B   20304.90082681 -.00000044 +00000-0 -59070-4 0  9990
2 23180 082.9437 094.4693 0029151 013.3954 095.3045 13.77980161322272
Epoch (UTC): 30 October 2020 21:37:11
Eccentricity: 0.0029151
inclination: 82.9437°
perigee height: 949 km
apogee height: 992 km
right ascension of ascending node: 94.4693°
argument of perigee: 13.3954°
revolutions per day: 13.77980161
mean anomaly at epoch: 95.3045°
orbit number at epoch: 32227

The dashed part of the orbit path shows where the satellite is in the earth's shadow,  

DLR